Location: Hamilton
(37.7830°S, 175.2830°E)
Time: 07:49:36
(UTC+13:00)

USA 238 DEB - Visible Passes

Search period start: 16 October 2019 00:00
Search period end: 26 October 2019 00:00
Orbit: 1027 x 1185 km, 63.4° (Epoch: 07 October)

Date Brightness Start Highest point End Pass type
(mag) Time Alt. Az. Time Alt. Az. Time Alt. Az.
21 Oct 6.4 05:58:38 10° NE 06:03:13 18° ENE 06:07:46 10° ESE visible
24 Oct 6.0 05:33:51 10° NNE 05:39:33 24° ENE 05:45:12 10° ESE visible
25 Oct 6.3 04:51:45 10° NE 04:55:12 14° ENE 04:58:37 10° ESE visible
